Location: CNYAC Observatory
(43.2150°N, 74.9500°W)
Time: 09:37:10
(UTC-05:00)

Cosmos 1975 Rocket - Visible Passes

Search period start: 31 January 2015 00:00
Search period end: 10 February 2015 00:00
Orbit: 604 x 636 km, 82.5° (Epoch: 30 January)

Date Brightness Start Highest point End Pass type
(mag) Time Alt. Az. Time Alt. Az. Time Alt. Az.
31 Jan 3.7 18:44:04 10° NNW 18:48:21 58° W 18:52:36 10° S visible
01 Feb 5.0 19:02:06 10° NNW 19:05:56 30° W 19:09:43 10° SSW visible
02 Feb 6.2 05:58:37 10° ESE 06:00:50 14° E 06:03:14 10° NE visible
02 Feb 3.4 17:41:43 10° N 17:45:51 42° ENE 17:50:00 10° SSE visible
02 Feb 6.0 19:20:36 10° NW 19:23:27 17° W 19:26:10 10° SW visible
03 Feb 5.6 06:14:46 10° SE 06:18:19 26° E 06:21:57 10° NNE visible
03 Feb 3.0 17:59:14 10° N 18:03:36 81° E 18:07:58 10° S visible
04 Feb 4.2 06:31:44 10° SSE 06:35:54 48° E 06:40:05 10° NNE visible
04 Feb 4.0 18:17:01 10° NNW 18:21:15 53° W 18:25:30 10° S visible
05 Feb 5.3 18:35:04 10° NNW 18:38:50 28° W 18:42:32 10° SSW visible
06 Feb 6.2 05:31:15 10° ESE 05:33:43 15° E 05:36:21 10° NE visible
06 Feb 6.2 18:53:40 10° NW 18:56:20 16° W 18:58:51 10° WSW visible
07 Feb 5.3 05:47:34 10° SSE 05:51:13 28° E 05:54:57 10° NNE visible
08 Feb 4.0 06:04:35 10° S 06:08:48 52° E 06:13:02 10° NNE visible
08 Feb 4.3 17:49:56 10° NNW 17:54:09 48° W 17:58:22 10° SSW visible
09 Feb 3.0 06:22:07 10° S 06:26:27 81° W 06:30:47 10° N visible
09 Feb 5.6 18:08:03 10° NNW 18:11:43 26° W 18:15:20 10° SW visible
